Regional Weather Roundup
Issued by NWS

Home | Current Version | Previous Version | Text Only | Print | Product List | Glossary Off
Versions: 1 2 3 4 5 6 7 8 9 10 11 12 13 14 15 16 17 18 19 20 21 22 23 24 25 26 27 28 29 30 31 32 33 34 35 36 37 38 39 40 41 42 43 44 45 46 47

000
ASUS45 KTFX 281310
RWRMT
MONTANA REGIONAL WEATHER ROUNDUP
NATIONAL WEATHER SERVICE GREAT FALLS MT
700 AM MDT THU MAY 28 2015

NOTE: "FAIR" INDICATES FEW OR NO CLOUDS BELOW 12000 FEET WITH NO
SIGNIFICANT WEATHER AND/OR OBSTRUCTIONS TO VISIBILITY.

MTZ001>007-043-281400-
WEST OF THE DIVIDE

CITY           SKY/WX    TMP DP  RH WIND       PRES   REMARKS
KALISPELL      CLOUDY    48  47  96 NW3       30.08R
MISSOULA       CLOUDY    49  46  90 W5        30.10R
BUTTE          CLOUDY    44  41  89 CALM      30.12R
MULLAN PASS    LGT RAIN  44  43  96 N3        30.15R
DEER LODGE       N/A     48  46  93 CALM      30.15R
EUREKA           N/A     52  52 100 CALM        N/A  VSB 1
HAMILTON         N/A     52  46  82 SE6       30.10R
LIBBY            N/A     50  48  93 CALM      30.11R
PLAINS           N/A     48  45  90 N1        30.10R VSB 0
RONAN            N/A     51  49  93 CALM      30.12R
THOMPSON FALLS   N/A     47  47 100 CALM      30.13R
$$

MTZ008-052>055-281400-
SOUTHWEST MONTANA

CITY           SKY/WX    TMP DP  RH WIND       PRES   REMARKS
BOZEMAN        CLOUDY    50  47  89 CALM      30.09R
DILLON         CLOUDY    48  44  86 S5        30.10R
W YELLOWSTONE  MIX PCPN  39  39 100 CALM      30.13R
THREE FORKS      N/A     51  31  46 CALM      30.07R
$$

MTZ009-010-012-014-046-048-049-054-281400-
EAST SLOPES AND CENTRAL MONTANA

CITY           SKY/WX    TMP DP  RH WIND       PRES   REMARKS
CUT BANK       PTSUNNY   51  47  86 NW21      30.04R
GREAT FALLS    CLOUDY    51  48  89 SW6       30.02R
MALMSTROM AFB  CLOUDY    53  49  85 W6        30.03R
HELENA         CLOUDY    54  46  74 CALM      30.06R
CONRAD           N/A     54  51  89 W7        30.05R
$$

MTZ011-013-016-021-045-047-050-051-281400-
NORTH CENTRAL MONTANA

CITY           SKY/WX    TMP DP  RH WIND       PRES   REMARKS
HAVRE          CLOUDY    50  49  96 W7        29.98R
LEWISTOWN      CLOUDY    52  47  83 SW5       30.04R
N BAR RANCH    CLOUDY    54  46  76 W8        30.04S
CHINOOK          N/A     54  52  94 W7        29.97R
FORT BENTON      N/A     52  48  87 S5        30.01S
$$

MTZ017>020-022>027-061-062-281400-
NORTHEAST MONTANA

CITY           SKY/WX    TMP DP  RH WIND       PRES   REMARKS
GLASGOW        SUNNY     52  50  93 NW12      29.91R
JORDAN           N/A     52  50  93 W8        29.94R
SIDNEY         CLOUDY    52  50  93 CALM      29.89F VSB<1/4
WOLF POINT     CLOUDY    53  50  89 CALM      29.90S FOG
MALTA            N/A     53  48  83 CALM      29.92R
PLENTYWOOD       N/A     55  55 100 NW5       29.89S
POPLAR           N/A     52  52 100 N3        29.90S
SCOBEY           N/A     52  49  89 E3        29.91R
$$

MTZ028>42-056>058-281400-
SOUTHCENTRAL AND SOUTHEAST MONTANA

CITY           SKY/WX    TMP DP  RH WIND       PRES   REMARKS
BAKER          SUNNY     55  52  89 NW6       29.94R
BILLINGS       PTSUNNY   52  45  77 SW7       30.01R
LIVINGSTON     LGT RAIN  50  46  86 NW7       30.06R
MILES CITY     FOG       52  52 100 SW5       29.94R VSB<1/4
BIG TIMBER       N/A     52  45  76 NW6       30.05R
EKALAKA          N/A     56  53  89 S3        29.94R
LAUREL           N/A     48  45  90 CALM      30.00R
ROUNDUP          N/A     51  46  83 S6        29.91R
$$

REGIONAL REPORTS...DAKOTAS

CITY           SKY/WX    TMP DP  RH WIND       PRES   REMARKS
WILLISTON      MOSUNNY   57  55  93 SW7       29.88S
MINOT          CLOUDY    59  56  89 CALM      29.85F FOG
DICKINSON      CLOUDY    53  51  93 NW3       29.89S
BEACH          FAIR      55  55 100 CALM      29.93S
CROSBY         CLOUDY    57  57 100 CALM      29.89S
WATFORD CITY   FOG       50  50 100 SW3       29.87F VSB<1/4
BISMARCK       PTSUNNY   63  57  81 W3        29.88F
GRAND FORKS    CLOUDY    57  55  93 E9        29.91F
FARGO          LGT RAIN  61  58  90 E5        29.92F
BUFFALO SD       N/A     57  54  89 W6        29.86S
RAPID CITY     SUNNY     56  54  93 W5        29.93R
$$

REGIONAL REPORTS...WYOMING/IDAHO/WASHINGTON

CITY           SKY/WX    TMP DP  RH WIND       PRES   REMARKS
GILLETTE       PTSUNNY   55  50  83 CALM      30.00R
SHERIDAN       CLOUDY    54  47  77 NW8       30.01R
BUFFALO WY     PTSUNNY   53  46  77 NW7       30.04R
CODY           CLOUDY    48  45  87 CALM      30.06R
YELLOWSTONE LA   N/A     34  32  92 CALM      30.18R
IDAHO FALLS    CLOUDY    49  47  93 N6        30.11R
SALMON         CLOUDY    48  46  93 CALM      30.11R
BOISE          CLEAR     53  43  68 SE8       30.07R
SPOKANE        PTCLDY    54  48  80 SE6       30.05R
$$

REGIONAL REPORTS...ALBERTA

CITY           SKY/WX    TMP DP  RH WIND       PRES   REMARKS
EDMONTON       CLOUDY    45  37  76 N20       30.23R
CALGARY        LGT RAIN  48  43  81 N23       30.16R FOG
LETHBRIDGE     CLOUDY    55  48  76 NW13      30.07R
MEDICINE HAT   CLOUDY    52  48  87 SW5       29.99R
$$

REGIONAL REPORTS...SASKATCHEWAN

CITY           SKY/WX    TMP DP  RH WIND       PRES   REMARKS
SWIFT CURRENT  MOSUNNY   52  48  87 W6        29.95R FOG
REGINA         PTSUNNY   57  54  88 SE10      29.93S
SASKATOON      CLOUDY    54  50  87 N17       29.96R
$$


USA.gov is the U.S. government's official web portal to all federal, state and local government web resources and services.